Change the Weather History Date:

Tuesday, December 25, 2012

  Actual Average Record
Temperature  
Mean Temperature 50 °F 45 °F  
Max Temperature 60 °F 55 °F 78 °F (1955)
Min Temperature 40 °F 34 °F -4 °F (1989)
Degree Days  
Heating Degree Days 15 20  
Month to date heating degree days 271 443  
Since 1 July heating degree days 820 870  
Cooling Degree Days 0 0  
Month to date cooling degree days 3 0  
Year to date cooling degree days 2028 1900  
Growing Degree Days 1 (Base 50)    
Moisture  
Dew Point 45 °F    
Average Humidity 80    
Maximum Humidity 100    
Minimum Humidity 60    
Precipitation  
Precipitation 0.00 in 0.12 in 1.24 in (1981)
Month to date precipitation 2.68 2.77  
Year to date precipitation 50.35 52.12  
Snow  
Snow 0.00 in - - ()
Month to date snowfall 0.0  
Since 1 July snowfall 0.0  
Snow Depth 0.00 in    
Sea Level Pressure  
Sea Level Pressure 30.06 in    
Wind  
Wind Speed 4 mph (East)    
Max Wind Speed 10 mph    
Max Gust Speed 14 mph    
Visibility 10 miles    
Events      
T = Trace of Precipitation, MM = Missing Value Source: NWS Daily Summary

Daily Weather History Graph

Daily Weather History Graph

Search for Another Location

Airport or City:

Trip Planner

Search our weather history database for the weather conditions in past years. The results will help you decide how hot, cold, wet, or windy it might be!

Date:

Astronomy

Dec. 25, 2012 Rise Set
Actual Time 7:14 AM EST 5:02 PM EST
Civil Twilight 6:46 AM EST 5:30 PM EST
Nautical Twilight 6:14 AM EST 6:02 PM EST
Astronomical Twilight 5:43 AM EST 6:33 PM EST
Moon 3:07 PM EST (12/25) 4:46 AM EST (12/25)
Length of Visible Light 10h 44m
Length of Day
9h 48m
Waxing Gibbous, 93% of the Moon is Illuminated
Dec 25
Waxing Gibbous
Dec 28
Full
Jan 4
Last Quarter
Jan 11
New
Jan 18
First Quarter

Hourly Weather History & Observations

Time (EST) Temp. Dew Point Humidity Pressure Visibility Wind Dir Wind Speed Gust Speed Precip Events Conditions
12:54 AM 50.0 °F 46.9 °F 89% 29.96 in 10.0 mi Calm Calm - N/A   Overcast
1:54 AM 45.0 °F 44.1 °F 97% 29.97 in 10.0 mi Calm Calm - N/A   Clear
2:54 AM 44.1 °F 42.1 °F 93% 29.97 in 10.0 mi Calm Calm - N/A   Clear
3:54 AM 42.1 °F 41.0 °F 96% 29.98 in 3.0 mi Calm Calm - N/A   Clear
4:54 AM 42.1 °F 39.9 °F 92% 29.99 in 10.0 mi Calm Calm - N/A   Partly Cloudy
5:06 AM 42.8 °F 42.8 °F 100% 29.99 in 10.0 mi Calm Calm - N/A   Mostly Cloudy
5:38 AM 44.6 °F 42.8 °F 93% 30.02 in 10.0 mi Calm Calm - N/A   Partly Cloudy
5:54 AM 45.0 °F 43.0 °F 93% 30.02 in 10.0 mi Calm Calm - N/A   Scattered Clouds
6:21 AM 44.6 °F 42.8 °F 93% 30.04 in 10.0 mi Calm Calm - N/A   Mostly Cloudy
6:54 AM 45.0 °F 43.0 °F 93% 30.06 in 10.0 mi Calm Calm - N/A   Mostly Cloudy
7:02 AM 44.6 °F 42.8 °F 93% 30.06 in 10.0 mi Calm Calm - N/A   Scattered Clouds
7:54 AM 42.1 °F 39.9 °F 92% 30.06 in 4.0 mi Calm Calm - N/A   Clear
8:54 AM 50.0 °F 46.9 °F 89% 30.08 in 10.0 mi Calm Calm - N/A   Clear
9:54 AM 53.1 °F 48.0 °F 83% 30.10 in 10.0 mi Variable 3.5 mph - N/A   Clear
10:54 AM 55.9 °F 48.0 °F 75% 30.10 in 10.0 mi East 4.6 mph - N/A   Clear
11:54 AM 57.9 °F 46.9 °F 67% 30.08 in 10.0 mi East 5.8 mph - N/A   Clear
12:54 PM 59.0 °F 46.9 °F 64% 30.05 in 10.0 mi East 4.6 mph - N/A   Clear
1:54 PM 60.1 °F 46.9 °F 62% 30.04 in 10.0 mi East 6.9 mph - N/A   Clear
2:54 PM 57.9 °F 46.9 °F 67% 30.06 in 10.0 mi SSE 8.1 mph - N/A   Clear
3:35 PM 57.2 °F 46.4 °F 67% 30.08 in 10.0 mi SE 6.9 mph - N/A   Mostly Cloudy
3:54 PM 55.9 °F 46.9 °F 72% 30.09 in 10.0 mi SE 5.8 mph - N/A   Mostly Cloudy
4:49 PM 53.6 °F 46.4 °F 77% 30.09 in 10.0 mi East 6.9 mph - N/A   Scattered Clouds
4:54 PM 54.0 °F 46.9 °F 77% 30.09 in 10.0 mi East 6.9 mph - N/A   Partly Cloudy
5:54 PM 51.1 °F 45.0 °F 80% 30.09 in 10.0 mi East 6.9 mph - N/A   Scattered Clouds
6:09 PM 50.0 °F 44.6 °F 82% 30.10 in 10.0 mi East 5.8 mph - N/A   Mostly Cloudy
6:54 PM 50.0 °F 45.0 °F 83% 30.12 in 10.0 mi East 4.6 mph - N/A   Clear
7:54 PM 48.9 °F 45.0 °F 86% 30.10 in 10.0 mi ENE 9.2 mph - N/A   Clear
8:54 PM 48.0 °F 43.0 °F 83% 30.13 in 10.0 mi ENE 5.8 mph - N/A   Clear
9:54 PM 48.0 °F 43.0 °F 83% 30.15 in 10.0 mi NE 5.8 mph - N/A   Scattered Clouds
10:54 PM 46.9 °F 43.0 °F 86% 30.13 in 10.0 mi ENE 5.8 mph - N/A   Clear
11:54 PM 48.0 °F 44.1 °F 86% 30.10 in 10.0 mi NE 6.9 mph - N/A   Mostly Cloudy